Regional Weather Roundup
Issued by NWS

Home | Current Version | Previous Version | Text Only | Print | Product List | Glossary Off
Versions: 1 2 3 4 5 6 7 8 9 10 11 12 13 14 15 16 17 18 19 20 21 22 23 24 25 26 27 28 29 30 31 32 33 34 35 36 37 38 39 40 41 42 43 44 45 46 47 48 49 50

000
ASUS43 KIND 221809
RWRIN

WEATHER ROUNDUP FOR INDIANA
NATIONAL WEATHER SERVICE INDIANAPOLIS IN
100 PM EST THU FEB 22 2018

NOTE: "FAIR" INDICATES FEW OR NO CLOUDS BELOW 12,000 FEET WITH NO
SIGNIFICANT WEATHER AND/OR OBSTRUCTIONS TO VISIBILITY.

* - STATION DOES NOT REPORT WEATHER SUCH AS PRECIPITATION OR FOG.

+ - STATION NOT QUALITY CONTROLLED BY THE NATIONAL WEATHER SERVICE.
    USE DATA WITH CAUTION...ESPECIALLY DEWPOINT AND RELATIVE
    HUMIDITY OBSERVATIONS.

INZ001>003-010>013-019-020-221900-
NORTHWEST INDIANA

CITY           SKY/WX    TMP DP  RH WIND       PRES   REMARKS
GARY /AIRPORT/ PTSUNNY   39  32  75 NE17      30.51F WCI  30
LA PORTE +     PTSUNNY   41  33  71 E14G20    30.51S
6HR MIN TEMP:  32; 6HR MAX TEMP:  42; 6HR PCP:  0.04;

MICHIGAN CITY+ CLOUDY    41  32  70 E6G16     30.51F
MONTICELLO +   CLOUDY    41  35  79 E13G25    30.45F
6HR MIN TEMP:  34; 6HR MAX TEMP:  42;

RENSSELAER +   CLOUDY    43  36  75 E17G24    30.46F
VALPARAISO     CLOUDY    42  34  73 E17       30.49F
6HR MIN TEMP:  33; 6HR MAX TEMP:  43; 6HR PCP: TRACE;


$$

LMZ046-743>745-221900-
SOUTHERN LAKE MICHIGAN

STATION/POSITION TIME  TEMP    WIND        PRES    WAVE
                       AIR SEA DIR/SP/G            HT
                 (UTC) (F)     (DEG/KT/KT) (MB)    (FT)
BURNS HARBOR     1717   33      30/ 14/ 16 1033.5F
MICHIGAN CITY    1740   36      20/ 12/ 13   N/A

$$

INZ004-005-014>016-021>024-221900-
NORTH CENTRAL INDIANA

CITY           SKY/WX    TMP DP  RH WIND       PRES   REMARKS
ELKHART        FAIR      39  28  65 SE16      30.52F WCI  30
GOSHEN         CLOUDY    40  31  70 E16G23    30.51F WCI  31
6HR MIN TEMP:  33; 6HR MAX TEMP:  40;

LOGANSPORT +   CLOUDY    41  36  81 E18G26    30.47F
PERU/GRISSOM   CLOUDY    42  42 100 E20G28    30.45F
6HR MIN TEMP:  33; 6HR MAX TEMP:  42; 6HR PCP:  0.01;

ROCHESTER +    CLOUDY    43  36  75 E18       30.49F
SOUTH BEND     PTSUNNY   41  29  62 E12G22    30.52S
6HR MIN TEMP:  32; 6HR MAX TEMP:  41;

WARSAW +       CLOUDY    37  32  81 SE14      30.50F WCI  29

$$

INZ006>009-017-018-025>027-221900-
NORTHEAST INDIANA

CITY           SKY/WX    TMP DP  RH WIND       PRES   REMARKS
AUBURN +       PTSUNNY   36  32  87 E16G22    30.52F WCI  26
FORT WAYNE     CLOUDY    38  34  85 E22       30.50F WCI  27
6HR MIN TEMP:  33; 6HR MAX TEMP:  39; 6HR PCP: TRACE;

HUNTINGTON +   CLOUDY    38  34  87 E12G17    30.49F WCI  30
6HR MIN TEMP:  32; 6HR MAX TEMP:  38;

KENDALLVILLE + PTSUNNY   37  32  82 E15G22    30.51F WCI  28

$$

INZ028-029-035-036-043>045-051>053-221900-
WEST CENTRAL INDIANA

CITY           SKY/WX    TMP DP  RH WIND       PRES   REMARKS
CRAWFORDSVL +  CLOUDY    39  39 100 E13G22      N/A  FOG     WCI  32
6HR MIN TEMP:  33; 6HR MAX TEMP:  39; 6HR PCP:  0.02;

GREENCASTLE +  CLOUDY    41  36  81 E9G18     30.42F
LAFAYETTE      PTSUNNY   43  38  82 E21       30.42F
6HR MIN TEMP:  34; 6HR MAX TEMP:  43; 6HR PCP:  0.03;

TERRE HAUTE    CLOUDY    44  40  85 E14       30.41F
6HR MIN TEMP:  38; 6HR MAX TEMP:  44; 6HR PCP:  0.03;


$$

INZ030>032-037>040-046>048-054>057-064-065-221900-
CENTRAL INDIANA

CITY           SKY/WX    TMP DP  RH WIND       PRES   REMARKS
ANDERSON       CLOUDY    41  37  87 E17       30.45F
COLUMBUS       CLOUDY    41 N/A N/A E10       30.42F
GREENWOOD *+   CLOUDY    39 -48   2 E15       30.43F WCI  31
INDIANAPOLIS   CLOUDY    42  37  82 E15       30.42F
6HR MIN TEMP:  37; 6HR MAX TEMP:  42; 6HR PCP:  0.07;

-EAGLE CREEK   CLOUDY    43  36  76 E14       30.41F
6HR MIN TEMP:  36; 6HR MAX TEMP:  42; 6HR PCP:  0.07;

KOKOMO +       CLOUDY    40  37  89 E18       30.45F WCI  31
6HR MIN TEMP:  33; 6HR MAX TEMP:  40; 6HR PCP:  0.02;

MARION +       CLOUDY    38  35  88 E16G25    30.46F FOG     WCI  29
MT COMFORT *+  CLOUDY    41  41 100 E15G21    30.44S
SHELBYVILLE    CLOUDY    44  38  79 E14       30.41F
6HR MIN TEMP:  38; 6HR MAX TEMP:  44; 6HR PCP:  0.03;

ZIONSVILLE +   CLOUDY    39  39  97 E10G22    30.44F WCI  33
6HR MIN TEMP:  33; 6HR MAX TEMP:  39; 6HR PCP:  0.06;


$$

INZ033-034-041-042-049-050-058-059-221900-
EAST CENTRAL INDIANA

CITY           SKY/WX    TMP DP  RH WIND       PRES   REMARKS
MUNCIE         CLOUDY    42  37  82 E17G25    30.45F
6HR MIN TEMP:  35; 6HR MAX TEMP:  42; 6HR PCP:  0.08;

RICHMOND +     CLOUDY    37  37 100 NE18      30.44R WCI  27

$$

INZ060-061-067>069-081>083-085>088-221900-
SOUTHWEST INDIANA

CITY           SKY/WX    TMP DP  RH WIND       PRES   REMARKS
EVANSVILLE     CLOUDY    47  46  97 E7        30.38F
6HR MIN TEMP:  42; 6HR MAX TEMP:  47; 6HR PCP:  0.03;

HUNTINGBURG +  CLOUDY    47  45  93 E9        30.38F
6HR MIN TEMP:  42; 6HR MAX TEMP:  47; 6HR PCP:  0.01;

WASHINGTON +   CLOUDY    47  43  86 E10       30.39R
6HR MIN TEMP:  40; 6HR MAX TEMP:  47; 6HR PCP:  0.03;


$$

INZ062-063-066-070>080-084-089>092-221900-
SOUTH CENTRAL AND SOUTHEAST INDIANA

CITY           SKY/WX    TMP DP  RH WIND       PRES   REMARKS
BATESVILLE +   CLOUDY    41  41 100 MISG      30.42F
BEDFORD +      CLOUDY    45  41  87 NE9       30.39F
BLOOMINGTON    CLOUDY    44  40  85 E14       30.39F
6HR MIN TEMP:  41; 6HR MAX TEMP:  44; 6HR PCP:  0.05;

FRENCH LICK *+ CLOUDY    43 N/A N/A E9        30.38F
MADISON *+     CLOUDY    45  41  87 NE8       30.42F
NORTH VERNON + CLOUDY    43  39  87 E13G18    30.41F
SEYMOUR +      CLOUDY    46  41  81 E13       30.40F

$$





USA.gov is the U.S. government's official web portal to all federal, state and local government web resources and services.